TimeCST,TemperatureF,Dew PointF,Humidity,Sea Level PressureIn,VisibilityMPH,Wind Direction,Wind SpeedMPH,Gust SpeedMPH,PrecipitationIn,Events,Conditions,WindDirDegrees,DateUTC
12:56 AM,53.1,51.1,93,29.98,10.0,SSE,4.6,-,N/A,,Clear,150,2012-11-26 06:56:00
1:56 AM,54.0,53.1,97,29.97,10.0,SSE,4.6,-,N/A,,Mostly Cloudy,150,2012-11-26 07:56:00
2:33 AM,55.4,53.6,94,29.98,10.0,SSE,4.6,-,N/A,,Mostly Cloudy,160,2012-11-26 08:33:00
2:52 AM,55.4,53.6,94,29.98,10.0,SSE,4.6,-,N/A,,Overcast,160,2012-11-26 08:52:00
2:56 AM,55.9,54.0,93,29.97,10.0,SSE,3.5,-,N/A,,Overcast,160,2012-11-26 08:56:00
3:56 AM,55.9,55.0,97,29.97,10.0,ESE,4.6,-,N/A,,Overcast,120,2012-11-26 09:56:00
4:56 AM,57.0,55.0,93,29.96,10.0,ESE,4.6,-,N/A,,Overcast,120,2012-11-26 10:56:00
5:56 AM,57.0,55.9,96,29.97,10.0,SE,3.5,-,N/A,,Overcast,130,2012-11-26 11:56:00
6:56 AM,57.9,55.9,93,29.99,4.0,SE,4.6,-,N/A,,Overcast,130,2012-11-26 12:56:00
7:01 AM,57.2,57.2,100,29.99,2.0,SE,5.8,-,N/A,Fog,Patches of Fog,130,2012-11-26 13:01:00
7:56 AM,57.9,57.0,97,30.00,2.0,ESE,4.6,-,N/A,Fog,Patches of Fog,120,2012-11-26 13:56:00
8:40 AM,60.8,57.2,88,30.01,3.0,SSE,6.9,-,N/A,,Overcast,150,2012-11-26 14:40:00
8:56 AM,60.1,57.9,93,30.01,4.0,SSE,4.6,-,N/A,,Overcast,160,2012-11-26 14:56:00
9:14 AM,60.8,59.0,94,30.01,5.0,SSE,5.8,-,N/A,,Overcast,150,2012-11-26 15:14:00
9:56 AM,62.1,59.0,90,30.01,7.0,SSE,5.8,-,N/A,,Overcast,160,2012-11-26 15:56:00
10:56 AM,66.9,62.1,84,29.99,9.0,SSE,5.8,-,N/A,,Overcast,160,2012-11-26 16:56:00
11:05 AM,69.8,62.6,78,29.99,10.0,SSE,6.9,-,N/A,,Mostly Cloudy,160,2012-11-26 17:05:00
11:56 AM,72.0,63.0,73,29.96,10.0,SSW,5.8,-,N/A,,Overcast,210,2012-11-26 17:56:00
12:51 PM,75.2,62.6,65,29.94,10.0,SSW,11.5,19.6,N/A,,Scattered Clouds,210,2012-11-26 18:51:00
12:56 PM,75.0,63.0,66,29.93,-9999.0,North,-9999.0,-,N/A,,Scattered Clouds,0,2012-11-26 18:56:00
1:56 PM,77.0,62.1,60,29.92,10.0,South,13.8,17.3,N/A,,Partly Cloudy,180,2012-11-26 19:56:00
2:56 PM,78.1,61.0,56,29.91,10.0,SW,9.2,-,N/A,,Mostly Cloudy,220,2012-11-26 20:56:00
3:56 PM,77.0,61.0,58,29.91,10.0,South,5.8,-,N/A,,Scattered Clouds,190,2012-11-26 21:56:00
4:56 PM,73.9,62.1,66,29.93,10.0,Calm,Calm,-,N/A,,Mostly Cloudy,0,2012-11-26 22:56:00
5:56 PM,70.0,62.1,76,29.95,10.0,Calm,Calm,-,N/A,,Overcast,0,2012-11-26 23:56:00
6:56 PM,68.0,63.0,84,29.97,7.0,Calm,Calm,-,0.06,Rain-Thunderstorm,Light Thunderstorms and Rain,0,2012-11-27 00:56:00
7:14 PM,68.0,64.4,88,29.98,10.0,Calm,Calm,-,0.01,Rain,Light Rain,0,2012-11-27 01:14:00
7:56 PM,68.0,64.0,87,29.99,10.0,North,10.4,-,0.01,,Mostly Cloudy,10,2012-11-27 01:56:00
8:31 PM,66.2,64.4,94,30.00,8.0,Calm,Calm,-,N/A,Thunderstorm,Thunderstorm,0,2012-11-27 02:31:00
8:56 PM,66.0,64.0,93,30.00,8.0,Calm,Calm,-,N/A,Thunderstorm,Thunderstorm,0,2012-11-27 02:56:00
8:59 PM,66.2,64.4,94,30.01,8.0,North,5.8,-,N/A,,Overcast,350,2012-11-27 02:59:00
9:27 PM,64.4,62.6,94,30.01,7.0,NNE,6.9,-,N/A,,Overcast,30,2012-11-27 03:27:00
9:56 PM,64.0,62.1,93,30.03,6.0,North,12.7,-,N/A,,Overcast,360,2012-11-27 03:56:00
10:03 PM,64.4,62.6,94,30.04,7.0,North,11.5,-,N/A,,Overcast,350,2012-11-27 04:03:00
10:37 PM,64.4,62.6,94,30.05,7.0,NNW,9.2,-,N/A,,Mostly Cloudy,340,2012-11-27 04:37:00
10:56 PM,64.0,62.1,93,30.07,7.0,NNW,10.4,-,N/A,,Overcast,340,2012-11-27 04:56:00
11:08 PM,62.6,60.8,94,30.07,8.0,North,10.4,-,N/A,,Overcast,350,2012-11-27 05:08:00
11:18 PM,62.6,60.8,94,30.07,7.0,North,8.1,-,N/A,Thunderstorm,Thunderstorm,10,2012-11-27 05:18:00
11:40 PM,62.6,60.8,94,30.08,7.0,North,13.8,-,N/A,,Overcast,10,2012-11-27 05:40:00
11:49 PM,62.6,60.8,94,30.07,7.0,North,11.5,-,N/A,,Overcast,10,2012-11-27 05:49:00
11:56 PM,63.0,60.1,90,30.07,7.0,North,9.2,-,N/A,,Overcast,10,2012-11-27 05:56:00